Pineville, WV

3:00 AM EDT on August 21, 2017 (GMT -0400)
Pineville

Weather History for KI16 - January, 2014

Change the Weather History Date:

Thursday, January 23, 2014

  Actual Average (KBKW) Record (KBKW)
Temperature  
Mean Temperature 10 °F -  
Max Temperature 19 °F 42 °F 68 °F (1914)
Min Temperature 1 °F 23 °F -19 °F (1936)
Degree Days  
Heating Degree Days 55    
Moisture  
Dew Point 8 °F    
Average Humidity 75    
Maximum Humidity 94    
Minimum Humidity 54    
Precipitation  
Precipitation 0.00 in - - ()
Sea Level Pressure  
Sea Level Pressure 30.27 in    
Wind  
Wind Speed - (North)    
Max Wind Speed -    
Max Gust Speed -    
Visibility 6 miles    
Events Snow    
Averages and records for this station are not official NWS values.
T = Trace of Precipitation, MM = Missing Value Source: NWS Daily Summary

Daily Weather History Graph

Daily Weather History Graph

Search for Another Location

Airport or City:

Trip Planner

Search our weather history database for the weather conditions in past years. The results will help you decide how hot, cold, wet, or windy it might be!

Date:

Astronomy

Jan. 23, 2014 Rise Set
Actual Time 7:36 AM EST 5:40 PM EST
Civil Twilight 7:08 AM EST 6:08 PM EST
Nautical Twilight 6:36 AM EST 6:40 PM EST
Astronomical Twilight 6:05 AM EST 7:11 PM EST
Moon 12:01 AM EST (1/23) 11:19 AM EST (1/23)
Length of Visible Light 11h 00m
Length of Day
10h 03m
Waning Gibbous, 55% of the Moon is Illuminated
Jan 23
Waning Gibbous
Jan 24
Last Quarter
Jan 30
New
Feb 6
First Quarter
Feb 14
Full

Hourly Weather History & Observations

Time (EST) Temp. Dew Point Humidity Pressure Visibility Wind Dir Wind Speed Gust Speed Precip Events Conditions
12:15 AM 17.2 °F 11.3 °F 78% 30.08 in 10.0 mi North - - N/A   Overcast
12:35 AM 17.1 °F 12.0 °F 81% 30.08 in 5.0 mi North - - N/A Snow Light Snow
12:55 AM 17.1 °F 12.7 °F 83% 30.08 in 5.0 mi North - - N/A Snow Light Snow
1:15 AM 17.2 °F 13.5 °F 85% 30.09 in 5.0 mi North - - N/A Snow Light Snow
1:35 AM 17.1 °F 14.0 °F 88% 30.09 in 3.0 mi North - - N/A Snow Light Snow
1:55 AM 16.9 °F 14.4 °F 90% 30.09 in 3.0 mi North - - N/A Snow Light Snow
2:15 AM 17.1 °F 14.5 °F 90% 30.09 in 3.0 mi North - - N/A Snow Light Snow
2:35 AM 17.2 °F 14.7 °F 90% 30.10 in 4.0 mi North - - N/A Snow Light Snow
2:55 AM 17.4 °F 14.9 °F 90% 30.10 in 4.0 mi North - - N/A Snow Light Snow
3:15 AM 17.4 °F 15.3 °F 91% 30.10 in 7.0 mi North - - N/A Snow Light Snow
3:35 AM 17.6 °F 15.4 °F 91% 30.10 in 7.0 mi North - - N/A Snow Light Snow
3:55 AM 18.1 °F 15.8 °F 91% 30.10 in 4.0 mi North - - N/A Snow Light Snow
4:15 AM 18.3 °F 15.8 °F 90% 30.10 in 2.0 mi North - - N/A Snow Light Snow
4:35 AM 18.3 °F 16.5 °F 93% 30.10 in 2.0 mi North - - N/A Snow Light Snow
4:55 AM 18.3 °F 16.7 °F 93% 30.10 in 2.0 mi North - - N/A Snow Light Snow
5:15 AM 18.5 °F 16.7 °F 93% 30.11 in 2.0 mi North - - N/A Snow Light Snow
5:35 AM 18.3 °F 16.7 °F 93% 30.12 in 2.5 mi North - - N/A Snow Light Snow
5:55 AM 18.3 °F 16.9 °F 94% 30.12 in 5.0 mi North - - N/A Snow Light Snow
6:15 AM 18.5 °F 16.7 °F 93% 30.12 in 3.0 mi North - - N/A Snow Light Snow
6:35 AM 18.5 °F 16.9 °F 93% 30.13 in 3.0 mi North - - N/A Snow Light Snow
6:55 AM 18.5 °F 16.7 °F 93% 30.13 in 2.5 mi North - - N/A Snow Light Snow
7:15 AM 18.9 °F 17.1 °F 93% 30.14 in 1.8 mi North - - N/A Snow Light Snow
7:35 AM 18.9 °F 17.4 °F 94% 30.16 in 1.0 mi North - - N/A Snow Snow
7:55 AM 18.5 °F 16.7 °F 93% 30.16 in 1.0 mi North - - N/A Snow Snow
8:15 AM 18.1 °F 15.4 °F 89% 30.17 in 2.5 mi North - - N/A Snow Light Snow
8:35 AM 18.1 °F 14.0 °F 84% 30.18 in 5.0 mi North - - N/A   Overcast
8:55 AM 16.7 °F 13.5 °F 87% 30.21 in 0.5 mi North - - N/A Snow Snow
9:15 AM 15.4 °F 11.5 °F 84% 30.23 in 1.5 mi North - - N/A Snow Light Snow
9:35 AM 15.8 °F 10.4 °F 79% 30.24 in 2.0 mi North - - N/A Snow Light Snow
9:55 AM 15.3 °F 10.2 °F 80% 30.26 in 1.5 mi North - - N/A Snow Light Snow
10:15 AM 15.6 °F 10.0 °F 79% 30.28 in 5.0 mi North - - N/A   Haze
10:35 AM 17.1 °F 8.8 °F 70% 30.29 in 3.0 mi North - - N/A Snow Light Snow
10:55 AM 16.0 °F 8.4 °F 72% 30.30 in 4.0 mi North - - N/A   Haze
11:15 AM 17.2 °F 9.0 °F 70% 30.30 in 5.0 mi North - - N/A   Haze
11:35 AM 17.6 °F 7.2 °F 64% 30.30 in 7.0 mi North - - N/A   Overcast
11:55 AM 18.0 °F 6.4 °F 61% 30.30 in 10.0 mi North - - N/A   Overcast
12:15 PM 18.9 °F 7.0 °F 60% 30.30 in 10.0 mi North - - N/A   Mostly Cloudy
12:35 PM 18.1 °F 6.1 °F 59% 30.29 in 3.0 mi North - - N/A   Haze
12:55 PM 18.1 °F 5.0 °F 57% 30.29 in 10.0 mi North - - N/A   Scattered Clouds
1:15 PM 18.3 °F 6.1 °F 59% 30.29 in 10.0 mi North - - N/A   Scattered Clouds
1:35 PM 19.2 °F 7.2 °F 59% 30.30 in 10.0 mi North - - N/A   Mostly Cloudy
1:55 PM 19.2 °F 4.8 °F 54% 30.31 in 7.0 mi North - - N/A   Mostly Cloudy
2:15 PM 18.9 °F 5.2 °F 55% 30.31 in 10.0 mi North - - N/A   Mostly Cloudy
2:35 PM 16.5 °F 4.3 °F 59% 30.32 in 10.0 mi North - - N/A   Mostly Cloudy
2:55 PM 19.2 °F 5.4 °F 55% 30.32 in 10.0 mi North - - N/A   Mostly Cloudy
3:15 PM 16.9 °F 3.7 °F 56% 30.34 in 2.5 mi North - - N/A   Haze
3:35 PM 17.4 °F 3.2 °F 54% 30.34 in 10.0 mi North - - N/A   Scattered Clouds
3:55 PM 16.7 °F 3.7 °F 57% 30.35 in 10.0 mi North - - N/A   Mostly Cloudy
4:15 PM 14.9 °F 2.7 °F 58% 30.37 in 10.0 mi North - - N/A   Scattered Clouds
4:35 PM 14.9 °F 2.1 °F 57% 30.37 in 10.0 mi North - - N/A   Mostly Cloudy
4:55 PM 14.0 °F 2.8 °F 61% 30.39 in 10.0 mi North - - N/A   Overcast
5:15 PM 12.9 °F -0.4 °F 55% 30.39 in 10.0 mi North - - N/A   Scattered Clouds
5:35 PM 12.7 °F 1.8 °F 62% 30.40 in 10.0 mi North - - N/A   Mostly Cloudy
5:55 PM 12.0 °F 1.8 °F 64% 30.41 in 10.0 mi North - - N/A   Scattered Clouds
6:15 PM 11.1 °F -0.4 °F 60% 30.42 in 10.0 mi North - - N/A   Clear
6:35 PM 10.4 °F -0.4 °F 62% 30.44 in 10.0 mi North - - N/A   Clear
6:55 PM 10.2 °F -1.1 °F 60% 30.45 in 10.0 mi North - - N/A   Clear
7:15 PM 9.9 °F -1.3 °F 61% 30.46 in 10.0 mi North - - N/A   Clear
7:35 PM 9.3 °F -1.3 °F 62% 30.46 in 10.0 mi North - - N/A   Clear
7:55 PM 8.2 °F -1.1 °F 66% 30.46 in 10.0 mi North - - N/A   Clear
8:15 PM 7.7 °F -0.4 °F 70% 30.47 in 10.0 mi North - - N/A   Scattered Clouds
8:35 PM 8.4 °F -1.5 °F 64% 30.47 in 10.0 mi North - - N/A   Scattered Clouds
8:55 PM 8.1 °F -1.7 °F 65% 30.48 in 10.0 mi North - - N/A   Scattered Clouds
9:55 PM 6.4 °F -1.8 °F 69% 30.49 in 10.0 mi North - - N/A   Scattered Clouds
10:15 PM 5.9 °F -2.2 °F 69% 30.50 in 10.0 mi North - - N/A   Clear
10:55 PM 5.2 °F -2.7 °F 70% 30.50 in 10.0 mi North - - N/A   Clear
11:15 PM 3.0 °F -2.2 °F 79% 30.51 in 10.0 mi North - - N/A   Clear
11:35 PM 1.9 °F -2.4 °F 82% 30.51 in 10.0 mi North - - N/A   Clear
11:55 PM 1.0 °F -2.4 °F 86% 30.51 in 10.0 mi North - - N/A   Clear